• In Belarus
  • List of Countries
  • For 7 days
  • Water Temperature
  • Satellite Maps
  • Weather Map
  • Weather Widgets
  • user-avatar
    Login

    Hourly Weather Chinnamanur

    Today, 17 January, Thursday

    Time Temperature Precipitation Wind Pressure Humidity
    00:00 +21°C° 0 mm 1 mps 726 mmHg 64%
    01:00 +20°C° 0 mm 1 mps 726 mmHg 68%
    02:00 +20°C° 0 mm 1 mps 726 mmHg 72%
    03:00 +20°C° 0 mm 1 mps 726 mmHg 75%
    04:00 +19°C° 0 mm 1 mps 726 mmHg 78%
    05:00 +19°C° 0 mm 1 mps 726 mmHg 81%
    06:00 +20°C° 0 mm 1 mps 726 mmHg 76%
    07:00 +22°C° 0 mm 1 mps 727 mmHg 71%
    08:00 +23°C° 0 mm 1 mps 727 mmHg 66%
    09:00 +25°C° 0 mm 2 mps 727 mmHg 59%
    10:00 +27°C° 0 mm 2 mps 727 mmHg 53%
    11:00 +29°C° 0 mm 3 mps 727 mmHg 47%
    12:00 +30°C° 0 mm 3 mps 727 mmHg 44%
    13:00 +31°C° 0 mm 3 mps 726 mmHg 42%
    14:00 +33°C° 0 mm 3 mps 725 mmHg 39%
    15:00 +31°C° 0 mm 3 mps 725 mmHg 42%
    16:00 +30°C° 0 mm 2 mps 725 mmHg 45%
    17:00 +29°C° 0 mm 2 mps 724 mmHg 48%
    18:00 +27°C° 0 mm 2 mps 725 mmHg 54%
    19:00 +25°C° 0 mm 1 mps 725 mmHg 60%
    20:00 +23°C° 0 mm 1 mps 726 mmHg 65%
    21:00 +22°C° 0 mm 1 mps 726 mmHg 70%
    22:00 +22°C° 0 mm 1 mps 726 mmHg 74%
    23:00 +21°C° 0 mm 1 mps 726 mmHg 78%

    Tomorrow, 18 January, Friday

    Time Temperature Precipitation Wind Pressure Humidity
    00:00 +21°C° 0 mm 1 mps 726 mmHg 82%
    01:00 +21°C° 0 mm 1 mps 726 mmHg 86%
    02:00 +20°C° 0 mm 1 mps 725 mmHg 90%
    03:00 +20°C° 0 mm 1 mps 725 mmHg 91%
    04:00 +18°C° 0 mm 0 mps 725 mmHg 92%
    05:00 +18°C° 0 mm 0 mps 725 mmHg 93%
    06:00 +21°C° 0 mm 1 mps 726 mmHg 87%
    07:00 +23°C° 0 mm 1 mps 727 mmHg 81%
    08:00 +24°C° 0 mm 1 mps 728 mmHg 75%
    09:00 +26°C° 0 mm 1 mps 728 mmHg 66%
    10:00 +28°C° 0 mm 2 mps 728 mmHg 56%
    11:00 +30°C° 0 mm 2 mps 728 mmHg 46%
    12:00 +31°C° 0 mm 3 mps 727 mmHg 44%
    13:00 +31°C° 0 mm 3 mps 726 mmHg 41%
    14:00 +33°C° 0 mm 3 mps 725 mmHg 38%
    15:00 +31°C° 0 mm 3 mps 725 mmHg 40%
    16:00 +30°C° 0 mm 3 mps 725 mmHg 42%
    17:00 +29°C° 0 mm 3 mps 725 mmHg 44%
    18:00 +27°C° 0 mm 2 mps 725 mmHg 48%
    19:00 +25°C° 0 mm 2 mps 726 mmHg 51%
    20:00 +23°C° 0 mm 1 mps 726 mmHg 55%
    21:00 +22°C° 0 mm 1 mps 726 mmHg 58%
    22:00 +22°C° 0 mm 1 mps 727 mmHg 62%
    23:00 +21°C° 0 mm 1 mps 727 mmHg 65%

    Day after tomorrow, 19 January, Saturday

    Time Temperature Precipitation Wind Pressure Humidity
    00:00 +20°C° 0 mm 1 mps 726 mmHg 70%
    01:00 +20°C° 0 mm 1 mps 726 mmHg 75%
    02:00 +19°C° 0 mm 1 mps 725 mmHg 81%
    03:00 +19°C° 0 mm 1 mps 725 mmHg 81%
    04:00 +19°C° 0 mm 1 mps 725 mmHg 82%
    05:00 +19°C° 0 mm 1 mps 726 mmHg 83%
    06:00 +20°C° 0 mm 1 mps 726 mmHg 76%
    07:00 +22°C° 0 mm 1 mps 727 mmHg 68%
    08:00 +24°C° 0 mm 1 mps 728 mmHg 61%
    09:00 +26°C° 0 mm 1 mps 728 mmHg 50%
    10:00 +28°C° 0 mm 2 mps 728 mmHg 40%
    11:00 +30°C° 0 mm 2 mps 728 mmHg 29%
    12:00 +30°C° 0 mm 3 mps 727 mmHg 27%
    13:00 +31°C° 0 mm 3 mps 726 mmHg 25%
    14:00 +33°C° 0 mm 3 mps 725 mmHg 23%
    15:00 +31°C° 0 mm 3 mps 725 mmHg 27%
    16:00 +30°C° 0 mm 2 mps 725 mmHg 31%
    17:00 +29°C° 0 mm 2 mps 725 mmHg 35%
    18:00 +26°C° 0 mm 2 mps 725 mmHg 39%
    19:00 +24°C° 0 mm 1 mps 726 mmHg 44%
    20:00 +22°C° 0 mm 1 mps 726 mmHg 48%
    21:00 +22°C° 0 mm 1 mps 726 mmHg 52%
    22:00 +21°C° 0 mm 1 mps 727 mmHg 56%
    23:00 +21°C° 0 mm 1 mps 727 mmHg 60%

    20 January, Sunday

    Time Temperature Precipitation Wind Pressure Humidity
    00:00 +20°C° 0 mm 1 mps 726 mmHg 66%
    01:00 +20°C° 0 mm 1 mps 726 mmHg 72%
    02:00 +19°C° 0 mm 1 mps 726 mmHg 78%
    03:00 +19°C° 0 mm 1 mps 726 mmHg 79%
    04:00 +19°C° 0 mm 1 mps 726 mmHg 80%
    05:00 +18°C° 0 mm 1 mps 726 mmHg 82%
    06:00 +20°C° 0 mm 1 mps 726 mmHg 73%
    07:00 +21°C° 0 mm 1 mps 727 mmHg 65%
    08:00 +23°C° 0 mm 1 mps 728 mmHg 56%
    09:00 +25°C° 0 mm 2 mps 728 mmHg 46%
    10:00 +27°C° 0 mm 2 mps 728 mmHg 37%
    11:00 +30°C° 0 mm 2 mps 728 mmHg 27%
    12:00 +30°C° 0 mm 3 mps 728 mmHg 26%
    13:00 +31°C° 0 mm 3 mps 727 mmHg 24%
    14:00 +33°C° 0 mm 3 mps 726 mmHg 23%
    15:00 +31°C° 0 mm 2 mps 726 mmHg 27%
    16:00 +30°C° 0 mm 2 mps 726 mmHg 31%
    17:00 +29°C° 0 mm 2 mps 725 mmHg 35%
    18:00 +26°C° 0 mm 2 mps 726 mmHg 39%
    19:00 +24°C° 0 mm 1 mps 726 mmHg 43%
    20:00 +22°C° 0 mm 1 mps 727 mmHg 46%
    21:00 +22°C° 0 mm 1 mps 727 mmHg 48%
    22:00 +21°C° 0 mm 1 mps 727 mmHg 49%
    23:00 +21°C° 0 mm 1 mps 727 mmHg 50%

    21 January, Monday

    Time Temperature Precipitation Wind Pressure Humidity
    00:00 +21°C° 0 mm 1 mps 727 mmHg 55%
    01:00 +20°C° 0 mm 1 mps 726 mmHg 59%
    02:00 +20°C° 0 mm 1 mps 726 mmHg 64%
    03:00 +19°C° 0 mm 1 mps 726 mmHg 67%
    04:00 +19°C° 0 mm 1 mps 726 mmHg 70%
    05:00 +19°C° 0 mm 1 mps 726 mmHg 73%
    06:00 +20°C° 0 mm 1 mps 727 mmHg 67%
    07:00 +22°C° 0 mm 1 mps 727 mmHg 60%
    08:00 +23°C° 0 mm 1 mps 728 mmHg 54%
    09:00 +26°C° 0 mm 1 mps 728 mmHg 44%
    10:00 +28°C° 0 mm 2 mps 728 mmHg 33%
    11:00 +30°C° 0 mm 2 mps 728 mmHg 23%
    12:00 +31°C° 0 mm 2 mps 727 mmHg 22%
    13:00 +32°C° 0 mm 2 mps 726 mmHg 21%
    14:00 +32°C° 0 mm 2 mps 726 mmHg 19%
    15:00 +31°C° 0 mm 2 mps 725 mmHg 24%
    16:00 +30°C° 0 mm 2 mps 725 mmHg 28%
    17:00 +29°C° 0 mm 1 mps 725 mmHg 33%
    18:00 +27°C° 0 mm 1 mps 725 mmHg 36%
    19:00 +25°C° 0 mm 1 mps 726 mmHg 38%
    20:00 +23°C° 0 mm 1 mps 726 mmHg 41%
    21:00 +22°C° 0 mm 1 mps 727 mmHg 41%
    22:00 +22°C° 0 mm 1 mps 727 mmHg 40%
    23:00 +21°C° 0 mm 1 mps 727 mmHg 40%

    22 January, Tuesday

    Time Temperature Precipitation Wind Pressure Humidity
    00:00 +19°C° 0 mm 0 mps 726 mmHg 45%
    01:00 +18°C° 0 mm 0 mps 726 mmHg 49%
    02:00 +18°C° 0 mm 0 mps 725 mmHg 54%
    03:00 +20°C° 0 mm 1 mps 725 mmHg 59%
    04:00 +19°C° 0 mm 1 mps 725 mmHg 64%
    05:00 +19°C° 0 mm 1 mps 726 mmHg 69%
    06:00 +21°C° 0 mm 1 mps 726 mmHg 65%
    07:00 +22°C° 0 mm 1 mps 727 mmHg 62%
    08:00 +22°C° 0 mm 0 mps 728 mmHg 58%
    09:00 +26°C° 0 mm 1 mps 728 mmHg 49%
    10:00 +28°C° 0 mm 1 mps 728 mmHg 40%
    11:00 +30°C° 0 mm 2 mps 728 mmHg 32%
    12:00 +31°C° 0 mm 2 mps 727 mmHg 30%
    13:00 +32°C° 0 mm 2 mps 726 mmHg 28%
    14:00 +32°C° 0 mm 2 mps 725 mmHg 26%
    15:00 +31°C° 0 mm 2 mps 725 mmHg 30%
    16:00 +30°C° 0 mm 2 mps 725 mmHg 34%
    17:00 +29°C° 0 mm 2 mps 725 mmHg 38%
    18:00 +27°C° 0 mm 1 mps 726 mmHg 41%
    19:00 +25°C° 0 mm 1 mps 726 mmHg 44%
    20:00 +23°C° 0 mm 1 mps 727 mmHg 46%
    21:00 +23°C° 0 mm 1 mps 727 mmHg 46%
    22:00 +22°C° 0 mm 1 mps 727 mmHg 45%
    23:00 +20°C° 0 mm 0 mps 727 mmHg 45%
    Show more